Theta_e
343 342 338 335 333 331 330 330 331 332 333 333 334 335 336 335 335 336 336 335 335 336 336 337 338 338 338 337 335 333 333 334 334 335 334 333 334 335 335 335 333 332 331 330 331 331 330 329 328 329 330 330 330 331 333 334 333 332 332 332 332 333
344 344 342 342 338 335 332 331 332 332 333 333 334 335 336 336 336 336 336 336 336 337 336 336 336 337 337 337 335 334 333 333 334 334 334 334 334 334 334 334 333 332 332 331 331 332 330 329 328 328 328 330 329 330 334 335 332 331 331 332 332 331
344 344 344 344 342 341 336 334 335 333 333 333 334 335 335 337 336 335 336 335 335 337 336 334 334 335 336 336 335 334 334 333 332 333 334 334 334 334 333 332 333 333 332 331 330 330 330 329 327 326 326 327 330 333 336 335 332 332 332 333 332 329
345 344 344 344 342 343 340 337 338 337 335 334 335 335 335 337 338 337 336 335 336 337 335 334 334 334 334 336 336 335 334 333 331 331 333 334 334 334 333 332 331 331 331 331 330 328 329 330 329 326 326 328 332 336 336 334 334 333 332 332 330 327
345 344 343 343 342 343 342 339 340 340 338 336 338 337 336 338 337 336 337 336 336 337 335 335 335 334 334 336 337 335 334 333 331 330 331 334 335 333 333 333 330 330 329 329 329 328 329 329 328 327 329 331 333 335 335 335 335 333 331 331 329 325
344 344 342 342 343 342 341 341 341 341 340 339 339 339 338 338 336 334 336 336 335 336 336 335 335 335 335 335 336 336 335 334 333 333 331 333 335 334 332 333 332 331 329 329 329 329 330 329 327 328 330 331 332 333 334 335 334 333 332 331 328 324
343 342 340 340 342 342 341 340 340 340 340 340 340 339 338 336 336 336 336 336 335 335 335 335 335 335 336 335 335 336 336 334 334 334 333 332 333 333 332 333 334 332 330 329 330 330 330 330 329 329 329 330 331 332 334 334 334 334 332 331 327 323
339 341 341 340 341 342 342 340 340 340 339 339 338 338 338 336 337 337 336 337 336 334 335 335 334 334 334 335 335 336 336 334 334 334 334 332 331 333 333 333 332 333 332 331 330 329 331 331 330 330 329 329 330 331 332 334 334 334 333 331 328 323
336 338 337 337 339 340 340 340 339 339 339 338 338 338 338 336 337 336 336 337 336 334 335 335 334 334 333 333 334 335 335 334 334 333 333 333 332 333 333 332 332 332 332 331 330 329 330 331 331 331 330 329 330 331 331 333 334 334 334 333 329 325
333 334 333 334 337 336 335 335 336 337 338 338 338 338 337 337 337 337 336 337 336 336 336 336 335 334 334 334 333 334 334 334 334 332 332 332 332 333 332 331 331 331 331 330 330 329 329 330 330 330 330 330 330 330 330 332 333 334 334 333 331 328
331 331 331 332 333 333 332 332 333 334 335 336 336 336 336 336 337 336 336 337 337 337 337 336 335 334 335 335 334 334 333 333 333 332 332 332 333 332 331 330 330 331 331 329 329 328 329 328 330 330 329 329 329 329 330 331 332 332 333 333 332 332
331 330 331 330 331 332 331 330 332 333 334 334 334 334 334 334 334 334 335 336 336 337 337 337 335 334 335 335 334 334 334 334 334 333 333 333 333 331 330 330 330 330 330 330 329 328 327 328 328 330 329 329 328 328 329 330 331 331 332 332 332 332
329 330 332 329 329 330 329 330 332 335 335 335 333 333 333 333 333 334 334 335 336 337 337 337 336 334 334 335 333 333 334 333 334 334 334 334 333 332 331 331 330 329 329 328 328 326 327 327 327 328 328 328 327 327 328 329 330 330 330 331 331 331
327 331 331 329 330 330 329 328 331 335 335 334 334 332 333 333 334 335 335 335 335 336 336 336 335 335 335 334 333 334 332 333 334 334 334 335 334 333 333 333 331 329 328 326 327 327 327 327 327 327 327 328 327 326 327 328 329 329 330 330 331 332
328 332 331 331 333 331 329 329 330 333 332 333 333 332 333 334 334 335 334 335 335 335 336 335 335 335 334 334 334 335 333 333 334 333 334 334 334 333 332 333 332 329 327 326 326 327 326 326 327 326 327 327 328 327 327 328 328 328 328 329 330 331
331 332 334 334 334 331 330 329 329 329 327 328 330 331 333 333 333 335 334 335 336 335 335 335 335 334 333 334 334 333 333 333 332 332 333 331 331 332 331 333 332 329 329 328 326 327 327 326 327 328 328 328 329 329 329 329 328 328 328 328 329 329
334 334 336 335 333 330 329 328 327 327 326 326 326 328 330 331 331 332 333 333 334 335 334 335 335 334 334 334 333 332 331 331 331 332 332 332 332 332 332 333 331 330 331 330 330 330 329 330 330 330 331 329 329 330 330 330 330 329 329 328 328 328
336 335 336 335 332 330 329 328 325 324 324 325 325 326 327 328 328 329 330 331 332 334 332 333 334 334 334 334 332 330 330 331 332 333 333 333 333 332 333 332 332 331 331 331 332 331 329 331 330 329 330 330 330 331 330 330 330 329 329 328 328 328
336 335 336 335 331 329 328 325 323 322 323 325 324 325 326 327 327 327 328 329 330 331 330 331 332 332 332 332 331 330 331 332 332 333 333 333 333 332 332 332 332 332 331 332 333 332 330 330 329 329 330 330 330 330 331 330 330 330 329 329 329 328
336 336 335 334 330 327 326 324 324 324 323 324 324 325 326 325 326 326 326 327 328 328 328 329 328 328 329 329 330 331 330 331 332 332 332 333 333 332 331 331 332 332 332 332 332 331 330 331 331 330 331 330 329 328 328 328 329 330 330 330 330 329
335 335 334 331 328 327 326 324 324 325 323 322 323 324 325 325 325 326 326 327 326 326 326 326 325 325 326 327 328 329 329 328 330 331 331 332 333 332 332 332 333 333 332 331 331 330 330 331 331 330 331 331 329 327 325 325 326 329 331 330 330 329
333 333 332 329 327 326 325 322 322 324 323 322 322 323 324 324 323 323 323 324 324 325 325 323 322 323 324 324 325 327 327 327 329 330 331 331 331 331 331 331 332 332 331 331 330 329 330 331 330 330 330 331 332 330 328 327 325 328 331 331 330 329
333 331 330 328 327 325 323 323 322 322 323 324 324 324 324 323 322 321 321 322 323 325 325 323 322 322 322 323 324 324 326 327 328 329 330 330 331 331 331 331 332 331 331 330 330 330 330 330 329 330 331 331 333 333 333 332 329 330 331 331 330 330
332 330 330 328 326 325 324 323 323 322 323 324 322 321 322 322 321 321 322 323 324 324 324 323 323 322 322 322 323 323 324 326 326 327 328 329 329 329 330 331 331 330 329 328 329 329 329 330 330 330 332 332 332 333 334 333 332 331 331 331 330 330
331 329 328 328 326 325 325 324 324 323 322 321 320 321 321 321 321 322 322 323 324 324 323 323 322 322 322 321 321 322 323 324 324 325 326 326 327 327 328 329 329 329 328 328 328 329 329 330 329 329 331 332 332 334 335 332 333 333 330 330 330 330
330 329 328 327 326 324 325 324 323 322 321 321 322 322 321 321 321 322 322 323 322 323 323 323 321 321 321 321 321 320 321 321 322 322 323 323 325 326 327 327 328 328 329 329 329 329 329 329 329 329 330 331 331 333 333 332 334 335 331 328 329 329
330 329 327 328 326 323 324 323 321 320 320 321 322 322 321 321 321 321 322 322 322 323 323 322 322 321 321 321 321 320 320 320 320 320 321 321 322 323 324 325 325 327 327 328 328 328 328 328 329 329 329 329 329 329 330 331 333 335 335 332 330 328
330 329 328 328 324 322 323 321 320 319 319 322 322 322 322 321 321 320 321 321 322 323 323 323 322 322 321 321 321 321 320 319 319 319 320 321 322 321 321 322 323 324 325 325 326 326 325 326 327 327 326 328 329 328 327 327 327 331 334 335 332 330
330 329 328 328 323 321 321 319 319 320 319 322 321 321 321 321 320 320 321 321 321 322 322 321 321 321 320 319 319 319 318 316 315 315 316 317 318 318 318 320 321 322 322 322 324 324 323 324 325 325 324 325 327 328 327 326 327 328 331 333 334 333
330 330 328 326 323 322 322 320 320 320 321 322 320 320 321 320 320 320 321 321 320 321 321 321 321 319 317 316 316 315 315 314 314 314 314 315 314 316 317 318 319 320 320 320 320 321 321 321 322 322 322 322 322 324 325 327 328 327 327 328 330 330
331 330 328 326 323 323 322 320 321 321 320 321 320 319 320 320 321 320 321 321 320 321 321 321 320 317 315 315 314 314 314 314 315 315 315 316 316 317 317 318 318 319 319 319 319 319 319 320 319 318 318 318 318 319 321 321 321 320 321 322 323 323
331 331 329 326 323 323 323 321 321 320 320 320 319 320 321 320 321 321 320 320 320 321 321 320 319 317 316 316 314 314 315 314 315 315 315 316 316 317 317 318 318 318 318 319 319 318 319 319 318 317 316 316 317 317 317 317 317 316 318 319 319 320
332 331 329 327 324 324 323 322 321 321 320 320 319 320 321 320 321 321 320 321 321 321 320 320 319 318 317 317 316 316 316 315 314 315 315 315 316 316 316 316 318 317 317 317 317 316 317 317 316 317 316 315 316 316 314 314 315 315 315 316 316 318
332 331 329 327 324 324 324 322 321 321 321 321 320 321 322 321 321 322 321 321 321 321 321 319 319 318 316 317 317 317 317 315 314 314 314 315 316 316 316 316 317 317 317 317 316 315 316 315 315 316 315 315 314 314 314 314 314 314 314 314 314 316
332 332 330 327 325 324 324 323 322 321 321 321 320 320 322 321 321 321 321 320 320 321 321 320 319 318 317 317 318 318 317 316 314 314 314 314 315 315 316 316 316 316 316 316 315 314 314 314 313 313 314 315 314 313 312 312 313 314 314 313 313 313
331 332 330 327 325 325 324 324 323 322 321 321 321 320 321 321 321 321 321 321 320 320 321 320 320 319 316 317 319 318 317 316 315 315 314 314 315 314 315 316 316 316 316 315 315 315 314 314 313 312 313 315 315 312 311 312 313 313 313 313 313 313
330 332 331 327 326 325 324 324 324 323 322 321 321 320 320 321 321 320 321 321 320 319 321 321 320 320 317 316 319 319 317 317 316 315 315 315 315 314 314 315 315 316 316 316 316 315 315 315 314 313 312 313 314 311 309 312 313 311 312 313 313 313
Wind_Speed
15 14 15 15 15 15 15 14 13 13 12 12 11 10 10 9 8 7 6 6 6 5 5 5 6 7 6 7 8 7 6 6 7 7 7 8 8 8 7 7 9 10 8 7 6 5 5 4 3 2 3 8 10 8 6 6 6 10 12 8 6 4
15 14 14 13 13 15 16 15 14 13 12 12 12 10 9 9 8 8 7 7 7 7 7 7 8 9 8 9 11 9 7 7 8 8 8 8 7 8 7 7 9 10 8 6 5 5 4 3 3 1 2 3 7 6 4 2 5 9 11 9 7 4
15 14 14 12 12 13 15 16 13 11 12 12 12 11 10 10 10 10 9 9 9 8 8 10 10 12 12 11 12 11 9 8 8 8 8 8 8 7 7 8 9 11 10 8 7 6 4 3 3 2 2 3 5 4 2 5 5 6 11 10 7 5
15 15 14 12 13 12 13 15 13 11 13 13 12 11 11 11 10 11 10 10 10 9 10 11 12 13 12 11 12 12 11 9 9 8 7 8 8 7 7 8 9 11 11 10 9 7 7 7 5 3 3 3 4 4 4 7 4 7 12 9 6 5
15 15 14 13 13 11 12 14 13 12 14 14 13 12 13 13 9 9 10 10 11 11 12 11 12 13 11 11 11 11 11 10 9 8 8 8 7 7 8 9 10 12 12 11 10 11 11 10 7 5 4 3 4 5 6 7 3 8 11 8 5 4
16 15 14 14 13 12 13 14 12 12 13 12 12 12 13 10 7 7 8 10 13 13 12 12 13 14 13 12 11 11 11 10 9 8 8 8 8 9 9 9 10 11 11 10 10 12 12 9 8 7 7 5 5 7 7 7 5 8 10 8 7 4
16 14 14 12 12 12 12 13 11 11 10 11 10 10 8 5 6 9 10 11 14 14 13 12 11 13 16 13 11 10 10 10 9 9 9 9 9 11 10 8 10 11 10 11 12 12 10 8 8 8 8 8 7 9 8 8 7 9 9 8 8 4
16 15 15 11 11 11 12 12 11 12 12 12 10 9 7 6 9 12 13 13 13 14 12 10 10 12 15 14 11 9 10 10 11 12 13 13 10 10 11 10 11 12 11 12 12 10 10 8 9 8 7 7 7 8 9 8 8 9 9 8 8 5
17 15 14 11 12 11 12 12 12 13 13 12 11 10 10 10 10 11 12 12 11 12 10 9 9 11 12 13 12 11 10 8 10 15 15 14 12 10 11 11 10 11 10 11 11 10 12 11 10 9 7 7 7 7 8 8 8 9 9 8 9 7
14 14 13 11 12 9 7 8 9 11 12 12 12 10 10 10 10 10 10 11 11 11 10 9 9 9 10 11 12 12 11 8 10 14 12 11 12 10 10 10 9 10 11 10 11 11 13 12 11 10 9 9 9 8 8 8 8 9 10 9 8 7
13 13 12 12 11 7 5 5 6 7 8 9 8 7 8 9 9 10 11 12 12 11 10 9 9 10 8 9 11 12 12 11 11 12 10 8 8 8 9 9 8 10 12 12 12 12 13 13 11 10 10 10 10 10 9 10 9 9 10 11 8 8
15 13 10 11 10 7 6 5 6 6 6 5 4 4 6 8 8 10 12 12 11 10 10 9 10 10 9 9 11 13 12 11 11 10 9 7 5 7 8 8 9 11 13 13 12 9 10 12 12 11 11 11 11 10 10 10 10 9 11 12 10 9
15 12 10 11 9 8 6 5 10 9 7 6 5 3 2 2 3 6 8 9 9 9 8 8 9 9 10 10 11 12 11 9 8 8 8 7 5 6 7 7 8 11 11 10 9 8 7 9 11 11 12 12 11 11 10 10 10 9 10 12 11 11
15 11 10 10 8 10 7 5 9 9 8 8 9 8 6 4 2 4 6 6 6 6 6 7 9 9 11 12 11 11 10 8 7 8 9 8 8 7 8 8 8 9 7 6 7 8 8 8 9 10 10 11 9 9 10 10 11 11 10 10 11 12
14 12 11 10 10 11 8 8 10 9 8 7 11 13 11 10 7 5 6 6 5 6 7 8 8 9 11 12 11 10 10 10 8 8 9 10 13 12 9 9 8 7 4 5 7 7 7 7 9 9 8 9 8 5 5 6 8 11 12 12 10 9
14 13 12 11 11 11 9 10 10 8 6 6 7 10 11 10 8 6 4 5 6 7 7 7 6 6 8 9 9 10 9 9 6 5 8 13 16 13 10 10 10 8 4 5 8 7 6 6 7 6 2 4 5 6 5 5 5 6 9 11 11 9
14 13 12 12 11 11 10 9 9 7 6 7 5 5 10 10 9 7 3 2 3 4 4 5 4 4 5 5 6 8 7 5 6 9 12 14 15 11 9 10 11 9 5 5 4 2 2 2 2 4 4 1 4 5 5 5 5 7 7 7 9 11
14 13 12 12 11 10 9 8 8 7 7 8 6 7 8 9 10 7 5 4 2 1 1 1 1 1 1 3 3 5 4 4 7 11 13 13 16 14 8 8 10 9 7 6 2 6 5 4 6 5 5 3 3 4 4 5 6 6 8 8 7 9
14 14 13 12 11 10 9 7 7 7 7 8 7 8 8 8 8 7 5 4 3 3 3 4 4 5 4 3 2 1 1 3 5 8 11 11 14 15 10 9 9 9 8 4 1 4 4 2 5 3 4 6 5 4 3 5 7 7 7 8 9 9
15 14 14 12 10 9 9 7 7 7 7 8 9 8 7 8 8 6 5 4 4 4 4 4 4 5 5 5 4 4 2 1 1 3 8 9 10 13 12 10 7 8 7 2 1 2 4 2 3 2 2 4 6 7 5 6 8 7 6 8 9 9
16 15 14 13 10 9 9 8 7 7 8 6 6 7 7 8 8 7 7 7 6 6 5 4 5 6 5 5 3 3 4 3 3 1 3 5 7 10 10 9 6 4 4 3 3 3 4 5 3 2 0 1 5 9 8 8 8 8 7 8 9 10
18 16 14 13 10 9 9 8 6 7 9 7 7 10 10 9 7 7 8 7 6 6 5 5 6 6 5 7 6 4 4 5 4 3 1 1 4 6 6 7 6 3 2 5 6 5 6 7 4 3 2 1 3 6 7 7 10 9 8 8 7 8
18 17 15 13 11 9 10 9 7 7 10 11 12 13 12 10 8 8 8 7 7 6 6 6 6 6 6 7 7 6 6 5 4 5 4 3 2 2 3 4 3 4 5 4 6 6 7 7 6 5 2 1 0 2 3 3 5 6 7 7 5 5
19 17 16 15 13 12 12 11 11 10 11 12 12 12 12 10 8 8 8 8 8 8 8 8 8 9 8 7 7 6 7 6 5 5 5 5 4 4 3 2 2 5 6 5 6 7 7 8 9 7 2 1 2 1 2 1 1 4 3 3 2 2
19 19 18 16 16 16 15 13 12 11 11 12 11 10 11 8 7 8 8 8 8 8 8 8 8 9 9 8 8 6 6 6 6 5 5 5 5 6 7 5 2 3 5 7 7 6 5 5 8 8 3 2 2 1 2 1 1 1 1 1 2 3
20 20 19 18 17 18 17 15 14 11 11 12 11 11 10 8 8 9 8 8 8 8 8 8 8 8 8 7 7 5 6 7 6 5 6 8 8 7 9 11 8 6 5 6 7 5 5 4 5 7 4 2 1 2 3 2 1 1 3 3 3 3
21 21 21 19 18 19 17 16 15 12 12 12 12 12 11 9 9 9 8 7 8 8 8 8 9 8 8 7 7 6 8 9 8 5 5 9 12 11 11 12 11 9 8 7 7 6 6 6 5 4 3 2 1 1 3 3 2 1 1 2 2 3
22 22 23 20 20 20 18 18 16 13 12 12 14 14 11 9 9 8 7 6 7 8 8 8 8 8 8 8 8 8 7 9 10 9 8 9 11 12 12 12 10 11 11 9 8 7 7 7 5 4 2 2 2 3 3 3 3 3 2 0 2 4
23 23 23 22 21 20 19 19 17 13 13 14 15 14 12 10 9 8 7 6 8 8 7 8 8 8 9 8 8 8 7 8 11 12 12 10 9 9 10 10 10 11 11 9 8 7 7 8 7 5 3 2 3 6 6 5 4 4 3 2 2 3
23 23 24 23 22 21 19 19 17 14 14 17 16 15 13 12 10 9 8 7 7 7 7 8 8 8 8 9 8 8 8 8 10 11 11 10 9 9 9 9 10 10 10 9 10 9 10 9 7 5 5 4 3 1 3 4 3 1 3 3 2 3
23 24 25 24 23 22 20 20 18 15 15 18 17 16 16 14 11 10 9 8 7 7 7 7 7 7 8 8 8 8 8 8 8 9 10 10 9 9 9 9 9 10 10 10 10 11 11 11 8 6 8 10 10 9 7 6 7 7 6 3 3 4
24 25 26 25 24 23 22 20 18 16 16 19 18 17 17 15 13 11 10 9 9 8 8 7 7 7 7 7 7 8 8 7 8 8 9 8 9 9 8 9 9 10 10 10 10 10 10 10 9 9 9 9 9 9 9 9 9 9 9 8 6 4
25 26 27 26 26 24 23 21 19 18 17 18 18 16 17 16 14 12 11 10 10 10 9 9 8 7 7 6 6 7 6 6 6 7 7 8 8 9 8 9 10 10 10 10 10 11 10 10 10 9 9 8 8 9 9 8 7 7 6 7 8 5
24 27 27 27 27 25 23 22 21 19 18 18 18 16 16 15 14 13 12 11 10 10 10 10 9 8 7 7 6 6 5 5 5 5 6 7 8 8 8 9 9 9 10 10 9 10 10 10 9 8 9 8 8 8 8 7 7 7 6 7 8 8
22 25 27 27 27 26 24 22 21 20 18 18 18 16 15 15 14 13 12 11 10 10 10 10 10 9 8 8 7 6 6 5 5 5 5 6 6 7 8 8 8 8 8 8 8 8 9 9 9 8 8 8 8 8 7 7 7 7 7 7 7 8
21 22 24 26 26 25 24 23 21 21 19 18 18 16 14 14 15 12 11 12 10 8 10 10 10 10 9 9 8 7 7 6 6 5 5 6 5 5 7 7 7 8 7 7 8 7 7 7 8 7 8 9 8 6 5 5 6 5 5 6 5 5
21 21 22 23 24 24 23 22 21 20 19 19 18 17 14 13 15 13 10 11 10 8 8 10 11 11 9 9 9 8 8 7 6 6 5 6 5 5 6 6 6 7 6 6 6 6 6 6 6 5 6 7 6 4 5 5 3 3 4 4 4 3
Wind_Direction
160 163 166 171 180 184 184 184 181 179 181 182 187 187 182 178 174 175 176 173 173 163 164 199 213 208 204 202 199 207 211 205 210 207 202 201 203 203 202 202 187 180 179 170 166 158 143 128 112 106 145 151 162 158 103 76 87 130 151 154 151 133
157 161 162 167 176 187 190 185 185 183 181 187 191 191 186 179 176 180 180 178 178 171 176 197 209 214 209 200 199 204 211 211 215 218 212 208 206 205 206 207 195 190 192 187 189 187 175 161 140 132 197 185 182 164 90 110 138 129 145 154 153 134
151 156 160 163 168 183 192 184 181 182 184 194 196 195 189 181 179 181 185 189 183 167 182 203 207 213 210 197 197 201 208 215 219 223 215 211 209 211 214 213 205 203 207 211 214 207 206 207 176 161 210 235 198 156 136 198 180 147 152 156 151 124
149 151 157 164 167 173 184 182 175 178 188 196 197 197 198 191 181 181 191 196 190 174 186 212 213 213 208 193 194 199 207 213 216 220 214 213 217 221 225 224 219 215 219 228 231 218 215 219 206 192 204 210 185 156 201 209 177 156 159 153 143 119
149 154 163 162 162 165 170 175 174 184 192 196 198 197 202 202 189 185 192 196 202 193 190 205 206 208 208 195 194 201 206 208 210 218 215 211 217 226 229 230 229 227 226 233 240 229 223 216 201 213 214 176 182 190 205 209 170 152 158 150 137 115
150 158 166 158 156 160 163 168 173 190 193 194 201 202 206 206 191 182 185 195 211 212 203 200 195 197 202 197 197 199 201 206 206 212 219 207 215 233 233 230 233 236 229 228 240 239 237 218 194 213 221 202 196 204 208 211 181 152 152 144 135 117
150 157 162 159 159 157 165 173 179 193 193 193 194 201 216 203 189 200 202 205 214 219 214 208 200 195 195 193 195 195 195 204 202 207 221 210 216 236 236 226 225 235 229 228 236 235 240 227 202 210 218 214 193 195 211 211 187 160 153 141 132 123
148 156 158 159 164 159 173 181 178 182 186 198 199 203 216 197 198 204 199 200 212 218 218 216 214 203 195 191 194 197 196 200 199 205 216 215 217 228 228 223 224 231 228 231 236 226 229 229 223 224 221 223 198 195 212 205 186 164 158 151 137 123
145 158 157 158 164 164 179 181 179 178 177 188 190 190 197 194 195 192 188 196 211 218 217 216 217 212 202 197 198 199 195 192 203 211 213 213 216 220 224 223 227 236 231 231 235 225 223 219 224 234 228 224 208 202 206 199 194 171 160 165 151 137
145 154 152 155 162 160 169 180 184 180 176 182 183 183 189 189 186 182 188 198 209 213 212 212 217 217 207 203 203 201 197 193 212 225 224 212 215 225 228 222 225 238 235 229 230 223 222 218 214 224 230 225 211 205 201 196 203 190 174 175 167 158
130 134 142 146 148 144 154 192 192 173 170 175 176 173 178 184 186 188 193 197 204 206 202 204 210 214 215 211 209 211 209 202 212 230 238 225 221 225 223 226 228 236 236 226 225 219 214 218 213 209 227 234 216 200 198 196 201 204 188 181 182 180
122 116 119 125 129 137 153 173 152 144 153 146 134 132 152 172 180 185 191 196 201 198 194 196 198 206 223 225 219 222 215 202 208 221 229 226 215 214 224 233 227 236 240 229 232 233 210 211 218 210 214 232 221 200 198 193 194 209 198 187 195 199
123 111 102 114 125 127 116 116 118 119 126 117 98 101 134 173 171 177 191 203 202 196 193 195 193 197 216 227 227 229 226 216 212 221 226 214 195 206 232 236 226 237 240 224 231 247 234 224 232 223 211 221 217 202 202 195 194 213 208 195 199 203
122 112 106 109 106 110 99 93 115 110 105 118 128 141 162 171 168 191 206 221 220 207 201 200 193 185 199 217 227 227 232 230 219 229 228 206 195 204 227 229 230 241 228 211 222 230 237 241 241 236 226 233 233 210 209 205 200 207 210 206 199 196
123 113 109 106 91 99 95 82 101 103 99 126 138 139 145 151 162 184 202 213 219 215 212 209 194 182 190 209 228 231 229 226 218 232 236 219 207 201 216 221 222 234 218 216 231 223 221 234 241 243 238 246 272 274 246 235 214 207 208 209 205 198
120 112 106 104 96 97 92 80 87 90 90 113 130 136 138 135 142 161 188 201 210 216 218 219 204 191 196 207 230 239 238 230 206 196 225 228 210 200 218 224 218 223 226 225 231 225 207 217 245 263 267 217 263 293 290 299 282 250 229 209 207 214
117 115 108 104 100 97 94 88 92 88 80 84 77 113 136 127 120 132 140 154 204 225 229 231 210 196 206 215 232 239 240 226 189 181 205 213 199 202 225 224 219 220 233 238 250 345 84 97 10 358 16 190 242 283 287 297 298 293 287 249 221 222
122 119 114 109 103 103 101 90 91 89 86 90 66 60 93 101 96 101 95 81 66 37 1 335 79 89 182 223 240 233 224 217 211 202 202 194 190 202 209 203 214 221 231 231 267 10 41 32 10 13 5 349 299 292 287 288 283 284 293 291 271 248
127 123 123 118 109 111 107 92 95 101 96 96 88 69 66 74 77 81 87 81 61 58 39 34 39 36 36 22 3 8 178 225 232 209 201 194 192 199 201 202 210 218 228 228 304 22 61 353 320 334 355 356 339 313 313 315 302 295 290 292 294 283
134 131 129 125 123 125 118 112 115 110 90 83 89 85 73 77 78 73 75 75 68 63 47 40 35 31 40 37 29 35 46 235 263 201 202 203 198 200 205 210 211 218 222 198 76 54 96 156 250 267 351 344 319 301 301 309 308 313 306 296 297 290
142 138 136 136 138 136 131 129 124 115 107 102 115 114 92 80 76 67 64 66 65 56 48 42 30 38 47 38 43 62 39 9 3 36 202 201 201 205 206 203 203 216 219 195 191 192 171 170 187 212 167 314 287 283 279 275 284 303 306 302 306 297
147 144 143 143 140 129 124 125 128 132 126 110 109 115 103 86 82 77 66 65 67 57 52 50 42 51 50 34 48 82 58 18 15 28 19 183 197 202 201 203 201 187 198 220 218 210 192 176 170 187 169 137 273 276 270 261 267 276 281 287 300 296
149 148 146 144 140 124 113 111 107 110 110 97 91 98 97 90 89 85 76 75 75 66 57 56 54 60 63 45 44 66 71 52 27 26 39 57 88 142 171 187 184 177 181 209 226 230 219 196 180 171 160 154 138 271 239 241 255 241 248 262 274 285
151 150 148 144 143 135 122 113 102 97 105 107 97 93 94 93 92 86 80 77 72 66 60 57 52 55 65 54 45 62 75 70 54 42 52 61 72 77 94 165 183 177 172 180 208 223 224 210 191 171 139 120 99 60 179 141 221 208 217 236 236 271
153 152 150 146 148 143 132 124 115 108 108 111 109 106 106 104 102 94 86 80 73 68 65 61 53 57 64 58 57 65 63 69 74 63 48 50 67 73 73 80 99 139 148 165 183 190 191 203 201 191 180 133 123 143 166 126 254 221 1 301 243 247
155 154 152 150 152 146 137 134 129 125 125 128 133 129 122 115 109 101 94 88 79 72 69 66 62 66 66 59 64 53 37 61 76 50 33 46 58 67 75 71 66 77 106 143 153 146 145 156 187 197 197 182 156 131 133 122 68 338 329 321 298 273
157 156 155 154 153 147 141 141 139 143 151 147 135 124 120 116 109 107 104 97 90 82 74 71 68 70 67 56 62 53 40 53 60 48 40 49 52 57 69 66 64 73 76 96 112 109 116 131 151 168 168 167 172 143 140 139 129 157 281 307 312 302
159 158 158 157 154 149 147 148 147 156 161 146 128 122 123 123 117 118 115 108 104 94 82 80 75 71 71 65 66 65 53 46 47 58 65 56 50 53 63 63 64 70 69 76 89 96 106 110 114 107 102 142 173 190 168 147 153 170 173 230 263 283
160 160 161 160 157 152 153 154 152 161 160 140 131 132 134 133 130 130 123 114 109 100 90 88 83 79 78 75 72 70 64 52 48 57 65 66 62 58 60 60 60 63 65 69 70 82 102 102 104 97 82 164 213 219 204 189 182 192 200 215 245 259
162 162 164 162 158 155 158 159 157 166 158 140 141 146 143 142 142 142 133 125 118 108 103 96 93 94 89 85 81 74 69 61 57 61 64 68 73 70 69 67 65 64 64 66 63 69 82 82 88 79 50 41 20 342 203 182 153 213 254 247 275 300
164 164 166 165 161 158 161 163 162 169 160 148 154 154 147 150 153 153 149 144 138 127 119 111 109 108 100 96 93 86 78 69 67 68 67 71 75 71 69 68 69 69 68 67 63 66 70 67 70 63 49 46 40 38 44 51 46 24 6 354 346 344
165 165 167 167 164 161 163 166 167 170 164 157 163 160 154 159 161 160 162 157 151 143 136 131 127 123 113 105 101 95 86 79 80 76 71 75 79 77 74 72 71 69 69 69 68 71 70 61 63 62 54 53 51 48 46 43 37 28 24 17 5 345
166 166 168 168 167 165 165 168 169 172 169 163 167 166 161 164 166 165 169 167 163 157 152 149 147 144 134 121 111 102 94 92 95 91 90 88 86 83 81 80 77 70 71 69 66 69 67 60 61 58 51 53 55 51 48 46 38 32 32 17 8 357
169 166 168 169 169 168 167 169 171 174 172 167 170 170 167 170 170 170 174 175 174 168 164 161 159 163 152 137 129 119 116 115 107 105 107 104 100 95 90 91 90 83 79 77 75 75 72 70 68 62 59 60 59 53 44 40 36 30 29 21 15 14
172 167 168 170 170 170 170 170 171 175 175 172 173 174 172 174 174 176 178 179 181 176 171 169 168 175 168 152 149 143 141 138 126 123 116 107 105 100 97 101 103 99 93 90 88 81 77 80 77 77 82 73 64 63 48 37 39 31 27 28 20 13
178 169 169 171 171 171 171 170 170 175 178 175 177 179 179 178 179 184 183 180 186 185 176 174 175 182 175 162 166 162 155 155 147 146 135 121 121 116 112 112 110 108 103 95 93 85 79 81 76 80 90 80 71 71 62 52 48 40 33 30 23 11
184 172 171 172 172 172 171 172 172 175 179 177 177 181 184 183 181 185 187 181 185 190 182 176 178 188 184 171 178 173 169 174 166 163 160 146 152 150 134 129 124 121 116 112 110 103 95 89 82 79 78 77 76 62 61 66 46 37 47 31 31 28